Weather History for PATK - March, 2013

Change the Weather History Date:

Monday, March 25, 2013

  Actual Average Record
Temperature  
Mean Temperature 18 °F -  
Max Temperature 25 °F 37 °F 50 °F (1954)
Min Temperature 9 °F 16 °F -18 °F (2007)
Degree Days  
Heating Degree Days 48    
Moisture  
Dew Point 14 °F    
Average Humidity 82    
Maximum Humidity 96    
Minimum Humidity 50    
Precipitation  
Precipitation 0.04 in - - ()
Snow  
Snow 0.00 in - - ()
Snow Depth 41.00 in    
Sea Level Pressure  
Sea Level Pressure 29.44 in    
Wind  
Wind Speed 5 mph (South)    
Max Wind Speed 12 mph    
Max Gust Speed -    
Visibility 3 miles    
Events Snow    
Averages and records for this station are not official NWS values.
T = Trace of Precipitation, MM = Missing Value Source: NWS Daily Summary

Daily Weather History Graph

Daily Weather History Graph

Search for Another Location

Airport or City:

Trip Planner

Search our weather history database for the weather conditions in past years. The results will help you decide how hot, cold, wet, or windy it might be!

Date:

Astronomy

Mar. 25, 2013 Rise Set
Actual Time 7:43 AM AKDT 8:30 PM AKDT
Civil Twilight 6:58 AM AKDT 9:16 PM AKDT
Nautical Twilight 6:02 AM AKDT 10:12 PM AKDT
Astronomical Twilight 4:57 AM AKDT 11:17 PM AKDT
Moon 7:00 PM AKDT (3/25) 6:54 AM AKDT (3/25)
Length of Visible Light 14h 17m
Length of Day
12h 47m
Waxing Gibbous, 97% of the Moon is Illuminated
Mar 25
Waxing Gibbous
Mar 27
Full
Apr 2
Last Quarter
Apr 10
New
Apr 18
First Quarter

Hourly Weather History & Observations

Time (AKDT) Temp. Windchill Dew Point Humidity Pressure Visibility Wind Dir Wind Speed Gust Speed Precip Events Conditions
12:04 AM 24.8 °F - 23.0 °F 93% 29.51 in 1.0 mi Calm Calm - 0.01 in Snow Light Snow
12:51 AM 24.8 °F - 23.0 °F 93% 29.50 in 1.0 mi Calm Calm - 0.03 in Snow Light Snow
12:53 AM 24.1 °F - 23.0 °F 96% 29.53 in 1.2 mi Calm Calm - 0.03 in Snow Light Snow
1:53 AM 24.1 °F - 21.9 °F 91% 29.50 in 1.0 mi Calm Calm - 0.02 in Snow Light Snow
2:12 AM 24.8 °F - 21.2 °F 86% 29.47 in 1.0 mi Calm Calm - 0.01 in Snow Light Snow
2:49 AM 24.8 °F - 21.2 °F 86% 29.46 in 0.8 mi Calm Calm - 0.04 in Snow Light Snow
2:53 AM 24.1 °F - 21.9 °F 91% 29.48 in 1.0 mi Calm Calm - 0.04 in Snow Light Snow
3:20 AM 24.8 °F - 23.0 °F 93% 29.45 in 1.5 mi Calm Calm - 0.01 in Snow Light Snow
3:53 AM 24.1 °F 19.7 °F 21.9 °F 91% 29.46 in 1.8 mi South 3.5 mph - 0.02 in Snow Light Snow
3:56 AM 24.8 °F 19.1 °F 21.2 °F 86% 29.43 in 2.0 mi South 4.6 mph - 0.00 in Snow Light Snow
4:13 AM 24.8 °F 19.1 °F 21.2 °F 86% 29.43 in 2.0 mi South 4.6 mph - 0.00 in Snow Light Snow
4:21 AM 24.8 °F 16.1 °F 21.2 °F 86% 29.42 in 2.5 mi South 8.1 mph - 0.00 in Snow Light Snow
4:39 AM 23.0 °F 15.8 °F 21.2 °F 93% 29.42 in 1.5 mi South 5.8 mph - 0.01 in Snow Light Snow
4:53 AM 23.0 °F 17.0 °F 21.0 °F 92% 29.44 in 1.0 mi SSW 4.6 mph - 0.01 in Snow Light Snow
5:00 AM 23.0 °F 17.0 °F 21.2 °F 93% 29.41 in 1.0 mi Variable 4.6 mph - 0.00 in Snow Light Snow
5:53 AM 21.0 °F 10.6 °F 18.0 °F 88% 29.43 in 1.0 mi South 9.2 mph - 0.02 in Snow Light Snow
6:33 AM 19.4 °F 7.9 °F 17.6 °F 93% 29.40 in 1.2 mi SSE 10.4 mph - 0.01 in Snow Light Snow
6:53 AM 19.0 °F 8.2 °F 16.0 °F 88% 29.42 in 1.2 mi South 9.2 mph - 0.01 in Snow Light Snow
7:12 AM 17.6 °F 5.7 °F 15.8 °F 93% 29.40 in 1.0 mi South 10.4 mph - 0.00 in Snow Light Snow
7:22 AM 17.6 °F 5.0 °F 15.8 °F 93% 29.39 in 1.2 mi South 11.5 mph - 0.00 in Snow Light Snow
7:34 AM 17.6 °F 5.0 °F 15.8 °F 93% 29.39 in 2.5 mi South 11.5 mph - 0.00 in Snow Light Snow
7:50 AM 17.6 °F 5.7 °F 15.8 °F 93% 29.39 in 1.5 mi South 10.4 mph - 0.01 in Snow Light Snow
7:53 AM 18.0 °F 5.4 °F 15.1 °F 88% 29.42 in 1.2 mi South 11.5 mph - 0.01 in Snow Light Snow
8:07 AM 17.6 °F 7.3 °F 14.0 °F 86% 29.39 in 0.8 mi South 8.1 mph - 0.00 in Snow Light Snow
8:31 AM 17.6 °F 7.3 °F 14.0 °F 86% 29.39 in 1.2 mi South 8.1 mph - 0.00 in Snow Light Snow
8:49 AM 17.6 °F 8.2 °F 14.0 °F 86% 29.38 in 2.5 mi South 6.9 mph - 0.00 in Snow Light Snow
8:53 AM 17.1 °F 7.6 °F 14.0 °F 88% 29.41 in 2.0 mi South 6.9 mph - 0.00 in Snow Light Snow
9:12 AM 17.6 °F 7.3 °F 14.0 °F 86% 29.38 in 2.0 mi South 8.1 mph - 0.00 in Snow Light Snow
9:53 AM 17.1 °F 6.6 °F 14.0 °F 88% 29.40 in 2.0 mi South 8.1 mph - 0.00 in Snow Light Snow
10:00 AM 17.6 °F 5.0 °F 14.0 °F 86% 29.38 in 1.2 mi SSE 11.5 mph - 0.00 in Snow Light Snow
10:34 AM 17.6 °F 5.7 °F 12.2 °F 79% 29.38 in 1.5 mi SSW 10.4 mph - 0.00 in Snow Light Snow
10:53 AM 16.0 °F 4.4 °F 12.0 °F 84% 29.40 in 1.5 mi South 9.2 mph - 0.00 in Snow Light Snow
11:00 AM 15.8 °F 4.2 °F 12.2 °F 86% 29.38 in 0.8 mi South 9.2 mph - 0.00 in Snow Light Snow
11:07 AM 15.8 °F 6.1 °F 12.2 °F 86% 29.38 in 0.8 mi South 6.9 mph - 0.00 in Snow Light Snow
11:10 AM 15.8 °F 6.1 °F 12.2 °F 86% 29.38 in 1.0 mi SSW 6.9 mph - 0.01 in Snow Light Snow
11:40 AM 17.6 °F 9.3 °F 12.2 °F 79% 29.38 in 1.2 mi SW 5.8 mph - 0.01 in Snow Light Snow
11:48 AM 17.6 °F 7.3 °F 12.2 °F 79% 29.38 in 1.0 mi SSW 8.1 mph - 0.01 in Snow Light Snow
11:53 AM 17.1 °F 7.6 °F 12.9 °F 84% 29.40 in 1.2 mi SSW 6.9 mph - 0.01 in Snow Light Snow
12:12 PM 17.6 °F 6.4 °F 12.2 °F 79% 29.38 in 1.8 mi SSW 9.2 mph - 0.00 in Snow Light Snow
12:23 PM 17.6 °F 5.7 °F 12.2 °F 79% 29.38 in 1.5 mi SSW 10.4 mph - 0.00 in Snow Light Snow
12:37 PM 17.6 °F 7.3 °F 12.2 °F 79% 29.39 in 2.5 mi SSW 8.1 mph - 0.00 in Snow Light Snow
12:53 PM 18.0 °F 6.9 °F 12.9 °F 81% 29.42 in 4.0 mi South 9.2 mph - 0.00 in Snow Light Snow
1:17 PM 17.6 °F 7.3 °F 14.0 °F 86% 29.40 in 3.0 mi South 8.1 mph - 0.00 in Snow Light Snow
1:53 PM 18.0 °F 8.7 °F 12.9 °F 81% 29.42 in 3.0 mi SSW 6.9 mph - 0.00 in Snow Light Snow
2:00 PM 17.6 °F 7.3 °F 12.2 °F 79% 29.40 in 2.0 mi SSW 8.1 mph - 0.00 in Snow Light Snow
2:19 PM 17.6 °F 9.3 °F 12.2 °F 79% 29.39 in 4.0 mi SW 5.8 mph - 0.00 in Snow Light Snow
2:53 PM 19.0 °F 9.0 °F 12.9 °F 77% 29.42 in 5.0 mi SSW 8.1 mph - 0.00 in   Overcast
3:53 PM 18.0 °F 7.7 °F 12.0 °F 78% 29.44 in 3.0 mi SSW 8.1 mph - 0.00 in Snow Light Snow
4:10 PM 17.6 °F 5.7 °F 12.2 °F 79% 29.42 in 3.0 mi SSW 10.4 mph - 0.00 in Snow Light Snow
4:46 PM 17.6 °F 6.4 °F 10.4 °F 73% 29.44 in 3.0 mi SSW 9.2 mph - 0.00 in   Overcast
4:53 PM 16.0 °F 4.4 °F 10.9 °F 81% 29.47 in 3.0 mi South 9.2 mph - 0.00 in   Overcast
5:15 PM 15.8 °F 3.4 °F 10.4 °F 79% 29.45 in 2.0 mi SSW 10.4 mph - 0.00 in Snow Light Snow
5:22 PM 15.8 °F 4.2 °F 10.4 °F 79% 29.45 in 1.5 mi SSW 9.2 mph - 0.00 in Snow Light Snow
5:32 PM 15.8 °F 4.2 °F 10.4 °F 79% 29.46 in 1.0 mi SSW 9.2 mph - 0.00 in Snow Light Snow
5:53 PM 15.1 °F 6.4 °F 10.0 °F 80% 29.49 in 2.5 mi SSW 5.8 mph - 0.00 in Snow Light Snow
6:02 PM 15.8 °F 4.2 °F 8.6 °F 73% 29.47 in 4.0 mi SSW 9.2 mph - 0.00 in Snow Light Snow
6:12 PM 15.8 °F 4.2 °F 8.6 °F 73% 29.47 in 3.0 mi SSW 9.2 mph - 0.00 in Snow Light Snow
6:18 PM 14.0 °F 2.0 °F 8.6 °F 79% 29.47 in 2.0 mi SSW 9.2 mph - 0.00 in Snow Light Snow
6:29 PM 14.0 °F 3.9 °F 8.6 °F 79% 29.47 in 1.8 mi SSW 6.9 mph - 0.00 in Snow Light Snow
6:40 PM 14.0 °F 3.9 °F 8.6 °F 79% 29.48 in 2.5 mi SSW 6.9 mph - 0.00 in   Overcast
6:53 PM 14.0 °F 2.0 °F 8.1 °F 77% 29.51 in 8.0 mi SSW 9.2 mph - 0.00 in   Overcast
7:39 PM 12.2 °F -0.2 °F 5.0 °F 73% 29.50 in 10.0 mi South 9.2 mph - N/A   Overcast
7:53 PM 12.9 °F 0.7 °F 5.0 °F 71% 29.53 in 10.0 mi South 9.2 mph - N/A   Overcast
8:53 PM 12.0 °F 2.7 °F 3.9 °F 70% 29.56 in 10.0 mi SSE 5.8 mph - N/A   Overcast
9:53 PM 10.9 °F 0.2 °F 1.0 °F 64% 29.59 in 10.0 mi South 6.9 mph - N/A   Mostly Cloudy
10:53 PM 10.0 °F -2.9 °F -0.9 °F 61% 29.62 in 10.0 mi South 9.2 mph - N/A   Mostly Cloudy
11:53 PM 9.0 °F -4.2 °F -0.9 °F 64% 29.67 in 10.0 mi South 9.2 mph - N/A   Mostly Cloudy